RH
100 100 100 100 100 100 100 100 88 71 72 53 53 40 54 71 73 54 54 98 89 96 90 47 38 41 39 32 33 36 45 47 53 53 40 35 30 32 23 20 20 20 21
96 100 100 100 100 100 100 100 99 81 60 51 68 64 61 69 74 55 68 96 100 100 80 60 46 41 46 37 39 51 46 59 72 76 60 43 28 27 20 19 21 17 17
77 100 100 100 100 100 100 100 100 100 76 57 70 73 64 80 90 79 52 100 100 97 84 49 43 48 48 44 46 45 44 60 88 84 54 28 24 23 23 21 20 20 19
80 100 87 99 100 99 100 100 100 100 96 71 92 87 77 83 94 93 80 100 98 85 62 56 50 52 47 44 48 51 50 91 79 60 53 27 25 21 21 20 20 20 19
98 84 100 100 100 89 100 100 100 100 63 86 87 98 100 86 93 83 81 100 96 66 62 57 57 49 52 54 57 58 68 80 62 44 34 24 22 21 18 16 17 19 18
96 99 100 100 100 100 100 100 100 100 71 68 92 93 95 90 100 100 88 100 100 100 100 81 63 50 52 52 44 40 52 51 43 32 27 24 18 14 14 16 19 22 22
81 84 88 100 100 100 100 100 100 99 66 77 76 66 88 96 98 100 98 99 100 100 100 89 95 71 57 45 42 44 44 38 33 35 34 27 22 20 22 19 18 22 29
69 90 89 99 100 90 74 98 100 89 64 75 76 72 100 97 100 100 100 100 98 98 100 98 94 90 60 49 48 49 45 42 34 34 26 25 25 24 23 23 22 27 32
100 97 87 92 72 70 84 94 92 73 68 72 80 95 100 100 98 100 100 100 100 98 85 85 86 92 82 65 48 52 40 26 25 26 26 27 27 26 26 26 25 25 28
100 100 100 96 71 67 66 82 90 68 71 67 69 100 100 99 100 100 100 100 100 100 90 77 64 95 85 60 50 44 43 33 38 40 36 36 31 34 30 29 33 26 30
100 100 100 100 84 73 68 66 68 71 81 76 81 99 97 100 100 100 100 100 100 100 100 73 61 59 52 40 42 35 33 37 44 50 52 47 37 44 43 57 44 33 28
100 100 100 100 100 96 74 65 70 75 85 100 95 100 96 90 100 100 100 100 100 100 100 98 72 81 60 52 46 36 37 39 53 61 65 58 48 53 58 55 44 32 31
76 100 100 100 100 100 96 83 81 86 89 98 90 92 94 100 100 100 100 100 100 100 100 100 96 100 94 57 41 39 37 61 78 75 80 63 49 50 63 57 50 41 30
76 94 94 100 100 100 100 100 100 99 96 96 91 90 91 100 100 100 100 100 100 100 100 100 100 100 100 88 50 50 49 86 72 96 98 64 55 56 60 53 45 30 33
87 88 98 100 99 100 100 100 98 100 100 100 99 100 100 100 100 100 100 100 100 100 100 100 100 100 100 79 74 76 76 88 99 93 73 74 58 55 59 45 40 38 42
94 74 84 88 92 100 100 100 100 100 100 100 100 100 100 100 100 100 100 100 100 99 100 100 93 77 71 81 80 100 100 100 99 88 92 80 94 76 57 47 40 43 53
89 88 98 90 97 88 100 94 86 89 85 85 97 100 100 100 99 100 100 96 90 98 100 96 81 79 96 89 96 98 100 94 99 93 84 67 58 50 57 41 42 55 100
100 91 94 100 100 100 100 99 84 89 86 94 84 85 100 100 94 100 100 100 100 100 100 100 100 99 80 100 100 100 82 88 75 53 45 35 45 50 39 44 67 100 100
100 100 90 91 98 99 89 96 86 87 91 100 100 100 100 100 100 100 100 97 100 100 100 100 93 92 100 88 100 83 67 48 46 40 47 49 46 51 60 79 100 95 90
100 100 93 100 90 96 65 71 66 95 89 96 98 100 100 100 100 96 88 97 100 100 92 95 100 97 96 93 74 50 38 36 51 51 45 58 61 96 100 100 95 78 76
100 100 100 100 100 100 84 80 65 63 100 100 93 90 100 98 92 98 100 100 100 91 77 79 77 92 96 87 65 47 33 46 51 74 70 92 100 100 94 89 73 78 69
100 100 100 100 100 100 100 100 93 73 68 87 100 99 89 82 91 90 100 100 97 100 100 96 90 100 100 76 47 57 69 92 79 67 100 100 88 83 92 80 82 83 59
100 100 100 100 100 100 98 93 92 94 94 90 100 100 100 90 100 94 98 70 94 94 100 94 100 95 73 72 64 95 87 100 100 100 92 83 100 95 87 88 81 60 40
97 100 100 100 100 100 100 100 97 100 100 100 100 100 100 100 100 100 95 93 81 79 78 100 94 85 94 84 100 90 94 89 100 75 73 100 90 96 94 77 57 40 33
100 100 100 100 100 100 100 100 100 100 100 99 96 99 98 100 100 100 100 91 92 84 88 100 84 100 97 100 77 98 74 100 100 89 100 90 99 85 72 49 44 34 41
100 100 100 100 100 100 99 98 100 97 97 89 100 100 100 100 100 99 92 82 99 75 78 100 100 100 99 100 100 90 100 100 98 100 89 100 78 56 46 47 44 40 50
Wind_Speed
63 61 59 53 49 47 48 47 47 43 38 35 33 31 28 30 28 32 32 32 33 35 34 31 30 25 24 22 21 22 21 20 21 24 26 31 30 33 30 18 22 29 35
66 62 60 56 50 50 50 47 48 45 40 37 34 32 31 33 30 30 28 29 34 37 36 35 28 26 26 25 21 21 24 26 29 28 30 34 38 31 19 23 25 32 44
66 65 62 60 57 54 51 48 48 44 42 38 37 36 34 34 32 30 34 32 36 39 38 35 30 30 27 26 25 25 28 31 31 31 32 33 31 24 23 26 33 43 50
68 67 62 61 62 58 54 50 47 48 47 41 40 40 39 35 36 36 38 34 38 40 35 32 33 32 31 29 30 33 32 33 35 36 36 34 33 30 33 35 39 49 50
74 69 64 64 63 60 55 52 53 53 48 44 42 41 43 38 36 36 37 34 36 39 38 35 34 33 34 35 36 35 37 38 38 39 36 39 38 43 40 39 45 49 50
75 76 67 66 67 64 59 59 57 56 51 48 43 44 45 40 38 39 37 36 37 37 42 42 37 35 35 39 41 40 42 44 42 42 40 42 42 42 44 45 51 56 57
71 70 73 69 70 64 63 62 59 57 52 51 46 44 45 43 39 38 40 42 40 40 41 48 48 43 41 44 45 44 48 46 49 44 48 43 48 49 51 54 58 63 63
67 68 70 74 72 67 66 62 61 59 54 51 49 47 48 46 43 42 39 42 44 44 46 47 49 47 48 47 46 46 48 52 48 47 45 47 55 57 59 62 65 68 68
70 68 68 67 66 66 67 65 65 62 59 55 49 49 52 53 47 48 44 42 46 49 51 48 49 50 50 48 51 51 48 39 42 45 47 54 60 58 62 65 69 72 78
70 74 71 67 65 68 66 68 67 64 62 59 53 55 57 54 49 51 52 51 50 51 53 53 52 52 53 54 52 50 51 50 49 51 55 60 62 62 67 71 74 75 80
72 75 74 72 69 69 69 68 66 64 61 61 58 56 60 55 52 52 57 54 51 53 57 57 58 56 57 52 52 54 53 53 57 60 65 66 67 69 75 73 79 80 86
72 74 72 69 71 70 71 69 67 66 63 62 60 59 59 57 55 54 58 60 61 60 59 60 59 58 58 60 59 59 57 59 62 64 66 69 72 75 76 80 85 89 91
76 75 72 72 71 70 70 68 65 66 65 63 61 60 61 59 59 63 63 64 63 63 62 61 61 63 66 65 63 65 65 66 69 71 71 74 79 81 82 86 91 91 97
80 78 75 72 69 69 73 68 65 66 66 64 65 66 64 60 63 65 63 63 63 62 60 59 63 67 70 72 69 73 71 73 75 76 77 80 84 85 88 91 96 104 99
81 77 72 71 68 68 67 65 61 61 61 62 63 62 60 61 59 56 54 58 63 60 61 62 71 68 73 76 77 76 77 78 77 77 82 86 87 89 94 98 103 104 103
84 83 76 76 71 71 67 63 62 57 57 57 64 67 66 63 60 61 62 67 66 66 70 75 75 76 76 77 75 77 80 79 81 84 90 93 90 96 97 102 110 107 105
91 88 82 78 74 70 67 66 63 64 61 61 60 61 60 63 61 64 69 70 71 73 76 79 81 80 80 81 80 77 79 83 88 93 95 94 98 101 105 109 112 106 104
85 87 83 75 78 78 75 70 68 66 64 65 64 65 64 66 64 65 68 71 74 76 76 76 78 82 84 79 79 83 86 90 93 96 98 100 101 107 108 109 107 108 115
92 90 85 85 82 77 74 77 76 69 68 70 71 71 69 69 71 73 74 75 76 76 78 80 81 83 82 87 91 94 95 96 96 101 105 105 108 109 110 104 117 124 128
94 89 88 89 89 82 76 79 73 73 74 74 75 74 76 76 77 76 78 76 76 80 83 84 85 86 90 92 96 96 97 101 103 107 105 110 111 108 114 120 128 132 138
97 90 90 92 92 90 85 81 76 75 75 76 79 79 80 79 79 80 79 81 85 85 87 89 92 95 94 97 98 101 105 109 109 103 111 111 111 122 129 134 139 142 149
95 93 92 93 91 93 85 85 87 85 84 81 86 84 84 82 82 83 84 86 88 92 93 95 98 100 103 107 108 108 108 106 110 107 111 121 126 135 139 144 148 148 152
104 102 99 96 95 99 95 94 94 90 93 93 87 84 85 84 85 89 93 96 96 99 101 101 104 107 108 110 113 105 106 110 116 118 130 132 136 141 145 148 151 157 156
112 110 106 104 99 96 95 94 91 90 91 92 94 95 95 94 94 95 99 101 102 105 107 109 110 107 109 114 115 116 121 124 126 132 136 137 142 145 148 157 154 155 162
109 114 108 107 109 108 106 102 100 98 95 96 97 99 101 98 101 102 101 104 106 103 107 107 112 112 117 119 119 123 125 129 135 140 139 143 148 151 151 152 155 150 147
116 118 115 107 112 109 109 108 108 109 109 106 99 102 105 108 110 109 111 112 108 109 109 111 118 122 124 129 129 132 132 137 139 148 152 145 153 156 142 151 152 151 137
Wind_Direction
230 234 238 240 240 244 249 255 258 264 266 272 271 270 275 281 283 284 282 278 286 290 295 296 289 274 264 258 260 273 281 286 299 304 301 312 310 310 297 303 307 314 325
227 233 236 239 239 245 249 252 258 263 263 270 271 272 275 281 283 279 273 282 284 289 295 297 287 275 265 262 262 269 277 288 294 299 306 313 312 304 297 299 301 316 321
227 230 234 237 238 241 246 249 258 261 263 266 270 270 273 280 279 266 276 280 280 287 291 296 289 275 263 261 264 276 285 289 292 294 305 311 319 319 286 294 304 312 318
229 233 236 238 242 241 244 249 248 256 261 265 269 269 272 278 275 275 271 272 278 282 285 293 290 278 267 262 272 280 283 289 290 293 301 307 316 307 309 308 303 313 320
232 231 236 238 240 241 245 245 250 257 260 261 264 266 270 272 271 278 268 273 284 285 286 286 283 283 268 272 276 278 279 284 287 293 301 313 306 307 307 308 320 322 324
231 233 230 239 239 242 243 248 252 252 259 259 259 260 266 271 269 275 269 274 281 286 289 288 285 280 272 270 273 277 278 283 288 300 304 306 309 313 312 309 320 329 328
232 232 232 232 236 242 239 246 249 252 256 257 258 261 263 268 268 272 273 270 271 280 279 281 283 282 271 268 271 277 282 291 295 298 297 300 310 311 314 314 318 321 325
235 233 233 232 237 242 242 241 244 252 252 256 257 261 263 268 268 271 277 274 270 272 277 275 276 276 275 278 280 284 288 295 296 291 294 301 310 308 314 320 319 321 321
237 238 234 235 237 238 240 242 244 249 251 252 254 260 263 264 267 267 272 275 277 276 277 276 273 273 277 281 286 292 293 297 300 298 293 301 305 312 315 317 317 318 318
234 236 238 237 237 237 238 241 245 248 249 252 251 255 261 261 265 268 267 275 272 275 274 272 273 268 275 280 286 289 284 293 297 298 301 302 307 310 314 314 316 316 318
232 236 237 237 239 239 240 240 242 245 247 250 250 253 257 258 261 264 266 271 271 277 275 274 276 273 275 280 282 282 286 294 296 299 302 303 307 308 312 310 315 314 317
230 233 234 237 239 241 242 240 241 245 245 248 251 252 256 257 259 261 264 266 271 273 273 274 276 278 278 277 279 285 288 291 294 294 298 302 306 308 310 311 313 315 314
226 225 231 236 237 238 239 242 243 245 246 248 250 249 254 258 262 262 264 265 269 268 269 272 274 278 279 281 280 283 287 290 296 296 296 301 304 307 309 311 312 312 312
224 228 225 229 235 244 242 241 245 247 249 250 250 249 252 257 263 266 264 266 266 269 270 273 274 275 276 277 285 287 288 293 293 295 296 302 305 307 309 309 308 309 306
227 226 230 232 232 237 243 243 242 245 247 250 252 256 259 261 261 261 266 269 272 266 266 269 267 267 273 279 285 288 287 288 291 293 297 303 302 304 305 307 307 304 304
226 228 230 231 234 236 237 238 240 243 244 248 254 257 258 257 255 263 266 267 261 260 260 266 269 273 278 283 285 289 288 288 291 294 299 300 303 303 305 305 304 303 302
227 230 231 234 237 235 232 233 240 245 245 244 243 247 252 256 254 260 262 264 266 268 272 273 274 277 281 285 286 287 288 289 292 296 299 302 303 305 304 302 300 302 304
227 228 231 235 234 234 238 241 246 247 247 249 250 250 250 252 257 262 265 265 266 270 273 275 275 277 281 283 285 287 290 291 295 297 302 302 302 303 302 299 300 301 302
229 232 236 235 236 238 240 242 242 244 248 249 252 252 254 255 258 261 263 265 268 270 271 275 278 281 280 285 287 291 294 296 296 298 300 298 298 302 298 297 301 303 304
232 237 236 235 238 242 241 240 242 245 250 250 252 256 255 258 260 264 265 266 267 274 277 279 281 282 286 287 289 292 293 296 298 297 296 296 296 298 301 299 302 306 309
232 235 236 239 242 242 238 242 244 247 249 253 256 258 258 261 263 264 265 266 268 275 280 282 284 284 286 288 290 291 293 294 296 294 296 296 297 296 300 301 304 308 311
232 234 237 238 238 239 245 243 249 251 252 255 255 258 260 263 262 264 267 271 274 278 282 283 284 286 286 287 291 290 291 289 293 294 294 296 298 302 301 304 306 312 311
235 234 236 241 244 243 247 248 250 250 252 255 253 257 258 261 264 267 268 270 275 277 280 281 283 285 286 287 286 286 289 290 290 293 297 298 301 305 306 307 309 310 310
235 236 239 239 242 245 247 248 251 252 252 254 254 257 260 260 264 266 268 270 273 277 279 279 280 282 284 286 282 285 288 292 293 297 299 296 304 306 307 307 309 309 309
236 240 242 243 245 246 248 249 252 253 255 258 260 260 262 261 264 266 269 273 276 279 279 279 282 278 282 284 285 289 292 291 294 297 299 301 302 305 306 306 308 309 308
235 237 239 245 248 248 250 252 253 256 259 261 262 261 264 264 266 268 273 274 275 278 277 280 281 279 282 282 285 290 291 291 294 296 299 302 303 306 307 307 306 308 309